This demonstration page uses our WeatherBlox Daily Observations layout. Learn more.

41.55636, -103.73856

Hourly Observations for March 16, 2019

Temp ( °F °C ) Dew Point ( °F °C ) Humidity (%) Winds ( mph kmh ) Pressure ( in mb ) Visibility ( mi km ) Precip ( " mm )
12:53 am 00:53 Clear 24 -4.4 19 -7.2 81 81 NW 8 13 30.36 1028 10 16.09344 0 0
1:53 am 01:53 Clear 23 -5 19 -7.2 85 85 NW 3 6 30.39 1029 10 16.09344 0 0
2:53 am 02:53 Clear 22 -5.6 19 -7.2 89 89 NW 6 9 30.39 1029 10 16.09344 0 0
3:53 am 03:53 Clear 21 -6.1 17 -8.3 85 85 NNW 7 11 30.36 1028 10 16.09344 0 0
4:53 am 04:53 Clear 22 -5.6 18 -7.8 85 85 NW 9 15 30.39 1029 10 16.09344 0 0
5:53 am 05:53 Clear 20 -6.7 18 -7.8 92 92 NW 8 13 30.42 1030 10 16.09344 0 0
6:53 am 06:53 Clear 19 -7.2 18 -7.8 96 96 WNW 8 13 30.45 1031 10 16.09344 0 0
7:53 am 07:53 Sunny 21 -6.1 18 -7.8 88 88 undefined N/A 30.45 1031 10 16.09344 0 0
8:53 am 08:53 Sunny 26 -3.3 20 -6.7 78 78 NW 10 17 30.45 1031 10 16.09344 0 0
9:53 am 09:53 Sunny 30 -1.1 23 -5 75 75 NW 6 9 30.48 1032 10 16.09344 0 0
10:53 am 10:53 Sunny 34 1.1 23 -5 64 64 WNW 7 11 30.48 1032 10 16.09344 0 0
11:53 am 11:53 Sunny 38 3.3 25 -3.9 60 60 W 8 13 30.45 1031 10 16.09344 0 0
12:53 pm 12:53 Sunny 40 4.4 25 -3.9 55 55 W 7 11 30.45 1031 10 16.09344 0 0
1:53 pm 13:53 Sunny 42 5.6 25 -3.9 51 51 NW 5 7 30.42 1030 10 16.09344 0 0
2:53 pm 14:53 Sunny 43 6.1 23 -5 45 45 Calm 30.39 1029 10 16.09344 0 0
3:53 pm 15:53 Sunny 44 6.7 25 -3.9 47 47 Calm 30.39 1029 10 16.09344 0 0
4:53 pm 16:53 Sunny 41 5 25 -3.9 53 53 S 6 9 30.36 1028 10 16.09344 0 0
5:53 pm 17:53 Sunny 41 5 25 -3.9 53 53 S 3 6 30.36 1028 10 16.09344 0 0
6:53 pm 18:53 Sunny 39 3.9 25 -3.9 57 57 SSE 3 6 30.39 1029 10 16.09344 0 0
7:53 pm 19:53 Clear 33 0.6 26 -3.3 75 75 Calm 30.39 1029 10 16.09344 0 0
8:53 pm 20:53 Clear 31 -0.6 25 -3.9 79 79 E 5 7 30.39 1029 10 16.09344 0 0
9:53 pm 21:53 Clear 28 -2.2 25 -3.9 88 88 S 3 6 30.39 1029 10 16.09344 0 0
10:53 pm 22:53 Clear 30 -1.1 23 -5 75 75 SSE 3 6 30.36 1028 10 16.09344 0 0
11:53 pm 23:53 Clear 26 -3.3 22 -5.6 84 84 E 5 7 30.36 1028 10 16.09344 0 0

Powered by AerisWeather